Location: Great Malvern
(52.1167°N, 2.3167°W)
Time: 10:18:19
(UTC+00:00)

SPOT 5 - Pass Details

Date: 18 September 2020
Orbit: 623 x 815 km, 98.3° (Epoch: 31 October)

Event Time Altitude Azimuth Distance (km) Brightness Sun altitude
Exits shadow 20:40:11 32° 71° (ENE) 1,338 3.9 -21.6°
Maximum altitude 20:40:37 32° 61° (ENE) 1,328 4.0 -21.7°
Drops below altitude 10° 20:45:17 10° 360° (N) 2,401 6.0 -22.3°
Sets 20:47:52 0° 351° (N) 3,348 7.0 -22.6°
